Dewpoint
62 60 58 58 57 55 52 51 42 48 46 43 43 43 44 46 46 46 47 48 46 46 49 42 39 43 42 41 35 30 32 33 30 37 37 35 34 36 34 35 36 38 42 50 56 60 61 63 66 65 62 60 59 58 58 58 57 57 58 57 56 57 55 56 56 55 56 57 56 60 60 60 58 57 56 55 54 55 56 56 55 55 55 54 55 58 59 58 57 57 57 58 60 59 59 58 54
61 58 55 58 57 52 48 50 41 41 42 43 44 43 40 44 45 45 45 47 46 45 43 36 36 36 35 33 34 39 34 33 36 31 36 33 34 38 33 34 35 35 42 53 60 60 60 61 64 64 62 61 59 59 59 57 57 57 57 57 56 57 57 56 55 54 57 57 58 57 57 58 56 57 57 56 55 55 56 57 56 55 55 54 54 58 59 59 57 56 55 56 56 59 59 58 55
59 52 53 56 53 53 52 50 43 42 42 40 41 42 41 42 44 45 45 47 48 46 41 37 37 37 39 38 35 35 30 34 31 32 37 33 32 33 32 33 35 34 39 49 55 58 61 62 64 64 64 61 61 59 58 58 56 56 55 56 55 56 57 58 54 54 55 56 59 59 57 57 57 57 57 57 57 56 56 56 56 55 54 53 55 58 59 60 58 56 56 56 55 54 58 57 55
56 54 51 54 50 53 49 48 44 42 40 40 37 40 40 41 43 45 46 45 45 42 40 39 31 33 36 29 30 32 29 29 33 31 32 31 32 33 31 33 36 32 35 39 47 54 59 62 63 64 63 63 61 60 58 57 56 56 56 56 55 54 56 57 58 56 56 57 58 58 59 56 55 56 57 57 57 57 56 56 55 55 55 54 55 56 59 59 59 58 56 56 56 55 57 57 54
50 55 55 52 50 47 48 45 42 41 40 36 38 40 40 42 44 43 40 39 37 39 39 37 32 30 33 30 34 28 27 31 33 32 33 34 32 30 28 34 27 28 31 34 41 51 57 61 62 63 62 62 62 62 61 60 58 56 55 55 55 55 54 56 57 56 55 56 55 58 59 57 56 55 56 56 57 57 56 54 53 54 56 56 55 56 56 57 58 58 58 56 56 55 58 57 55
50 50 50 50 47 49 45 41 38 39 41 39 39 38 39 39 41 43 37 35 35 34 37 33 33 30 27 25 32 25 29 28 30 32 33 30 31 27 26 33 23 23 26 30 35 45 54 60 61 62 62 62 62 62 61 60 61 61 60 55 55 55 53 54 55 56 55 56 56 56 56 56 58 56 56 57 57 56 55 54 54 55 55 55 55 56 56 57 58 58 57 57 56 56 56 57 56
48 47 46 48 47 44 40 35 35 36 41 41 40 39 38 35 37 38 33 35 34 33 34 31 29 29 26 25 28 26 25 26 31 31 32 32 29 24 26 22 20 19 22 25 28 37 50 57 60 60 61 62 62 61 61 61 60 60 59 61 56 54 55 55 55 55 54 54 56 56 56 57 56 55 55 57 56 56 55 54 54 54 54 54 55 54 55 57 58 58 58 58 57 56 55 58 56
50 45 43 43 39 39 36 34 35 36 38 41 39 36 32 32 35 31 31 33 31 30 29 34 30 32 30 32 25 25 23 25 27 32 32 30 26 21 21 18 17 17 19 20 23 29 45 53 56 58 59 60 61 61 61 61 60 60 60 61 60 59 58 55 54 55 56 54 54 55 55 56 56 56 56 55 57 56 54 54 54 55 56 57 57 54 55 56 57 58 60 58 58 56 56 56 57
43 43 42 40 38 34 32 35 36 36 38 31 21 35 40 33 34 31 29 27 30 27 22 25 30 30 27 26 23 27 22 26 27 30 27 23 20 21 19 19 17 16 17 17 18 23 29 47 50 53 55 56 57 58 59 60 60 60 60 60 59 59 59 59 60 60 59 59 58 55 55 55 55 55 55 57 54 53 54 54 53 54 55 56 57 57 55 54 56 59 59 59 58 56 56 57 56
38 41 38 36 34 34 27 31 32 36 35 27 20 23 24 29 29 32 30 28 25 29 25 25 29 29 29 26 26 23 23 26 29 23 23 23 20 19 18 19 19 16 16 16 16 17 26 39 45 47 49 52 52 53 54 55 55 56 57 57 58 58 59 59 59 59 59 60 61 60 59 56 57 59 57 56 55 54 54 53 53 53 55 55 56 57 55 54 55 60 60 59 59 58 57 57 57
33 37 39 36 29 29 31 31 29 31 20 21 24 24 27 31 29 26 29 28 27 26 26 27 25 25 23 25 22 24 25 23 24 23 21 22 21 19 19 18 19 19 16 16 17 15 16 24 37 42 44 46 48 49 49 50 50 51 52 52 53 53 54 55 56 57 57 58 59 59 60 60 60 59 58 58 59 56 54 54 54 53 53 54 55 53 53 54 54 59 59 60 60 58 58 57 57
32 32 33 27 26 28 27 26 28 30 27 22 20 25 24 29 28 25 25 25 25 24 23 23 25 27 24 24 21 18 18 19 23 25 22 21 20 20 20 20 19 19 21 17 16 15 15 15 21 33 38 40 41 44 45 45 46 46 47 48 49 50 50 52 53 53 54 54 55 56 57 57 58 58 58 58 58 59 55 54 54 53 53 53 52 52 52 53 54 55 57 59 60 60 58 58 56
32 33 29 26 27 25 26 25 28 30 22 19 20 24 25 23 24 27 26 25 25 22 25 22 22 24 23 22 19 19 16 20 21 23 20 19 20 18 19 20 21 21 21 24 19 17 17 16 17 22 28 35 36 37 41 42 42 43 44 45 46 46 46 47 48 48 49 50 51 54 56 56 56 57 58 58 58 58 59 58 54 54 53 53 53 52 52 53 54 54 55 58 58 58 58 57 57
33 31 29 25 24 24 23 23 21 20 19 20 22 27 26 23 24 26 22 20 20 21 24 23 24 23 22 19 18 20 18 20 19 22 20 20 20 17 17 17 20 19 20 19 20 19 19 19 19 19 19 19 18 27 33 38 39 40 41 42 42 43 43 43 44 46 47 48 49 50 51 52 53 55 56 57 58 58 57 57 58 57 56 53 53 52 52 53 53 53 54 55 58 57 58 57 57
25 33 28 25 20 20 22 19 20 20 20 21 19 25 21 23 25 25 21 20 19 21 19 21 22 23 20 18 17 14 16 18 20 24 20 22 20 19 17 15 15 16 17 16 17 18 17 19 18 19 21 19 17 17 18 25 36 37 38 39 39 40 40 40 41 41 43 45 47 48 48 47 50 51 53 54 56 56 56 56 57 58 56 55 53 53 52 52 53 53 54 54 55 58 58 57 57
29 25 20 18 18 19 22 18 22 19 19 20 20 22 22 21 26 23 19 23 21 18 20 18 18 21 16 17 15 16 17 24 20 19 20 19 20 21 19 15 13 12 14 16 13 14 14 16 17 18 19 20 19 18 18 18 30 33 34 36 36 37 38 38 38 37 39 41 43 45 45 45 46 47 50 49 53 54 54 55 56 58 58 56 54 53 53 52 54 54 54 53 54 55 57 57 57
30 24 14 17 13 17 19 17 18 16 20 19 20 21 22 21 22 20 20 18 15 17 16 15 17 16 15 14 16 17 21 34 29 18 16 13 13 13 16 17 17 12 10 11 13 11 10 11 14 16 17 19 19 19 19 19 22 28 28 31 33 35 37 36 36 36 36 36 38 42 43 40 42 44 45 47 50 50 52 53 55 57 57 57 58 54 53 53 53 53 53 53 53 56 57 56 57
25 18 14 12 14 15 20 18 18 18 15 15 18 20 20 20 19 18 18 15 14 16 15 14 15 15 16 17 18 18 19 19 20 14 13 12 12 11 13 16 16 14 13 11 11 10 9 8 11 15 16 18 17 17 21 22 21 22 16 17 21 24 33 34 28 29 34 26 36 34 38 38 40 41 45 48 48 49 49 52 53 54 55 56 56 56 56 53 54 52 52 53 55 56 57 55 57
21 17 13 13 19 19 23 18 19 14 14 17 18 22 21 20 18 18 17 16 17 15 15 14 14 15 16 16 17 17 17 17 15 15 14 13 12 12 12 15 18 17 15 14 11 10 8 8 9 13 16 18 17 17 17 21 14 14 15 16 19 24 27 28 25 27 25 25 28 30 36 35 38 41 42 45 47 49 49 51 51 53 53 54 54 54 54 56 53 53 53 53 55 57 54 53 55
23 16 14 16 20 21 22 18 19 17 16 16 19 19 19 20 18 19 20 16 19 16 14 14 14 14 15 15 16 15 15 14 13 13 13 14 14 14 14 13 14 18 18 17 15 10 8 7 7 12 16 18 19 18 19 16 15 13 14 15 12 13 19 23 25 26 26 25 27 28 31 33 36 39 42 44 46 46 48 49 50 50 51 51 52 51 52 52 54 54 55 55 56 53 51 51 53
17 16 15 17 21 17 16 19 17 18 19 17 18 18 18 18 19 20 21 17 17 17 15 15 14 14 14 15 15 15 14 14 14 12 11 11 11 12 13 16 16 18 23 18 16 13 11 8 8 10 13 17 19 18 16 18 16 14 15 15 14 14 18 16 18 23 26 26 27 29 32 32 34 37 38 40 41 45 46 46 47 48 49 49 51 49 50 50 51 49 50 52 48 49 50 50 52
21 16 20 17 18 15 16 17 17 19 19 18 18 16 17 20 21 21 18 18 17 19 19 19 14 14 14 15 15 15 13 12 13 13 14 15 12 10 9 10 12 17 23 15 16 14 12 10 8 11 14 16 19 19 16 21 17 15 16 17 15 15 20 15 17 20 23 26 28 30 30 29 32 35 36 38 39 42 42 45 46 47 48 48 49 49 49 49 49 49 48 48 47 47 50 50 51
16 21 18 18 17 15 15 17 18 19 18 18 17 18 19 19 19 21 18 20 21 25 22 17 15 15 15 15 14 13 12 12 12 12 11 11 11 13 9 8 10 11 14 15 16 16 16 9 9 10 14 16 18 19 16 16 16 16 18 21 19 18 19 16 18 20 24 26 28 29 32 29 30 32 34 37 38 42 40 42 44 46 47 47 49 48 48 48 48 48 48 48 47 46 46 49 50
21 18 18 12 16 14 16 16 20 20 18 18 19 21 18 19 17 19 20 19 22 21 16 17 18 19 17 14 13 13 13 13 14 15 12 12 8 7 9 7 6 8 9 12 14 15 16 11 10 7 14 17 17 17 16 15 16 16 20 25 17 28 20 17 19 22 25 23 29 30 34 31 31 30 31 31 34 38 40 41 41 43 45 46 48 49 48 48 48 48 47 47 46 46 46 47 49
21 19 19 19 15 14 15 18 18 20 20 18 18 16 17 18 15 20 19 17 17 16 17 17 17 16 16 15 16 16 15 14 13 14 13 9 8 12 6 6 5 8 5 8 12 14 14 18 12 10 12 17 16 16 15 16 16 15 17 17 16 29 17 18 20 21 20 23 26 30 35 31 31 33 31 32 33 32 37 39 43 43 43 45 46 48 49 49 48 48 48 48 46 45 45 46 47
22 22 26 23 13 16 17 14 15 17 20 17 16 16 17 17 18 16 18 16 16 15 15 15 15 14 14 14 14 13 14 13 9 7 8 9 8 1 3 4 7 6 8 7 9 12 15 9 12 10 9 18 16 15 16 15 17 14 17 17 17 24 17 20 22 19 20 22 23 27 31 33 31 30 31 32 31 30 34 36 39 42 44 45 45 46 48 48 49 49 48 48 47 46 44 46 47
28 27 26 15 13 16 12 14 15 16 18 17 16 16 16 16 15 15 17 18 16 14 14 14 14 13 14 14 15 13 9 6 4 3 2 5 4 3 6 3 4 6 11 7 7 11 22 11 12 11 11 23 16 16 18 15 17 14 20 17 17 17 20 23 20 19 21 21 23 27 29 31 33 31 29 28 29 30 31 32 34 39 43 43 44 45 45 46 47 48 49 49 49 48 45 45 45
24 24 20 21 14 9 11 14 14 16 15 17 17 16 16 15 16 15 15 17 14 12 12 13 13 13 13 11 10 9 6 6 3 -0 -1 -1 2 3 5 6 3 5 8 8 9 13 9 11 13 12 10 17 16 16 20 17 16 16 20 17 17 19 23 20 19 20 25 22 25 26 28 29 33 31 29 28 29 29 29 31 33 35 38 43 44 43 43 44 45 46 47 48 49 49 48 45 44
23 18 14 18 9 5 6 13 15 15 14 17 17 13 14 15 14 16 16 15 12 11 12 12 12 11 10 9 7 5 3 2 1 1 2 3 4 3 1 7 5 2 7 9 9 7 9 9 14 10 11 13 13 12 14 16 15 17 17 17 18 24 19 19 19 20 21 23 24 25 27 29 32 30 28 30 32 29 29 30 30 33 36 39 41 41 41 41 42 44 44 46 47 48 48 47 44
21 17 14 13 11 7 4 16 18 11 9 15 10 1 9 12 15 16 16 12 11 11 11 11 10 10 10 9 7 6 5 3 2 2 2 2 4 2 -0 1 13 4 8 6 6 6 12 11 9 11 16 11 17 11 15 13 15 16 21 15 21 20 18 19 22 20 22 23 23 25 27 28 30 28 27 27 28 28 29 29 30 31 33 35 37 38 40 40 41 41 42 44 45 46 47 47 46
-1 9 17 8 7 4 8 14 22 9 15 8 5 2 0 4 11 16 16 11 11 10 10 10 10 10 6 5 4 5 7 7 5 4 3 2 0 5 3 2 1 4 4 4 4 8 7 6 14 6 14 10 12 9 11 11 15 14 15 16 18 20 21 19 20 20 21 21 23 24 26 27 28 28 28 28 27 28 28 28 29 30 31 33 33 35 36 38 40 40 42 42 42 44 46 47 46
15 10 7 7 3 5 10 17 14 9 9 11 8 4 5 6 10 13 16 12 11 10 10 10 9 6 4 3 2 3 5 6 6 4 4 5 3 -0 3 6 2 5 2 6 5 7 4 4 14 7 8 12 13 15 12 12 13 14 16 24 18 20 20 19 19 20 21 22 24 24 25 26 28 27 27 27 26 25 26 26 28 29 31 31 32 32 34 35 36 38 40 42 42 42 43 45 46
12 -2 -2 3 3 2 9 15 17 10 10 11 7 3 6 6 11 13 15 10 10 10 9 9 7 5 3 2 2 2 1 1 2 1 2 1 4 3 -0 9 5 8 3 4 4 3 4 4 8 7 11 15 13 10 11 14 14 15 16 18 18 21 19 18 19 20 21 20 22 23 23 25 26 26 26 26 25 24 24 25 27 28 30 31 31 32 33 35 35 36 38 40 42 43 43 44 45
7 13 -3 -2 0 2 6 14 14 13 10 8 10 9 7 8 12 11 13 10 10 9 9 8 7 5 4 3 2 1 1 1 -0 -0 2 2 3 5 1 15 10 7 5 3 4 3 4 5 6 13 16 14 11 9 13 15 17 17 17 18 26 20 18 19 20 21 21 21 22 22 22 24 26 25 24 24 24 25 27 27 27 27 29 30 31 31 32 34 35 36 36 37 40 40 40 41 42
-0 2 4 3 9 12 8 11 14 12 16 10 8 9 10 11 11 10 14 10 9 9 8 7 5 4 3 2 0 -0 -1 -1 0 0 4 5 5 4 4 6 8 11 6 4 5 4 3 2 8 7 13 9 9 12 16 18 18 18 18 18 18 18 19 19 20 20 22 22 21 22 23 24 24 24 24 25 24 24 24 25 25 26 28 29 30 31 32 33 34 35 36 36 37 38 38 40 41
6 4 4 4 6 3 7 11 15 15 12 11 10 8 10 11 10 10 10 9 9 9 9 8 7 6 5 4 3 2 2 0 3 9 7 6 7 6 3 6 8 8 7 3 10 4 3 3 8 10 11 11 14 15 17 18 19 19 17 17 17 18 17 20 20 22 21 21 22 22 22 23 24 25 24 24 24 24 24 24 24 26 27 28 29 30 31 32 32 33 34 34 35 36 37 39 40
7 10 9 7 6 6 10 14 16 18 12 11 8 13 11 12 11 10 9 10 10 10 7 6 6 4 4 4 4 1 -2 -1 12 9 9 7 7 4 7 7 7 4 3 4 2 4 4 8 10 8 10 11 14 15 16 18 17 16 16 16 17 17 18 20 19 19 20 20 22 22 22 23 23 22 24 24 23 24 24 23 24 24 25 28 29 30 31 31 32 33 34 34 34 33 33 34 37
10 8 5 6 6 4 3 5 11 17 8 8 12 12 12 12 11 10 9 7 4 2 1 1 1 2 3 3 3 2 1 11 5 2 3 3 4 8 7 5 13 -2 4 3 3 5 8 9 9 7 8 10 11 11 13 14 15 15 15 16 17 18 18 17 16 17 19 21 22 21 22 23 22 22 23 23 23 22 22 23 22 23 24 26 28 30 30 34 33 33 33 32 32 33 32 32 35
11 6 7 7 3 7 9 11 14 13 11 5 13 11 11 11 11 10 6 3 2 1 1 1 1 1 1 2 4 3 2 2 1 -0 4 1 6 5 1 -1 -4 -1 4 2 5 7 9 9 9 8 7 7 5 7 7 6 9 13 14 14 15 17 17 17 17 19 19 20 21 22 23 22 22 21 21 23 22 22 21 21 21 22 23 26 27 28 29 30 31 32 32 32 30 30 33 33 35
6 8 8 5 5 6 4 8 13 13 8 7 14 11 10 9 7 7 9 5 3 4 4 3 6 1 1 2 1 2 2 6 1 -0 -2 -1 -2 -3 -1 -1 -4 -1 7 4 5 7 9 12 9 7 6 3 4 5 8 6 10 12 13 13 15 16 16 18 14 13 16 19 19 21 22 23 20 19 18 18 18 18 19 19 20 21 21 24 26 27 28 29 30 32 32 32 31 30 29 30 34
11 7 5 6 3 3 6 6 9 11 13 14 12 12 10 9 4 3 6 8 4 5 1 2 4 7 6 5 4 6 3 6 1 0 -1 1 -1 -2 -2 -1 -2 0 7 6 7 5 6 6 8 6 5 3 4 7 3 6 10 10 10 9 11 12 10 9 8 9 10 14 20 21 19 19 17 18 16 15 16 15 15 17 18 19 20 22 25 27 28 29 30 31 31 31 30 30 29 28 30
9 8 4 2 3 7 7 8 6 3 1 12 9 2 -2 10 7 4 5 6 3 3 3 3 3 3 7 2 4 6 8 9 0 1 2 1 -0 -1 -1 -2 -3 -3 1 6 7 7 7 5 7 5 6 6 4 4 4 7 10 8 6 6 5 6 7 8 9 11 12 14 15 16 17 15 16 15 14 13 11 14 11 12 15 17 19 22 23 24 26 28 29 30 30 31 30 31 31 30 28
6 3 8 7 8 8 7 5 5 3 0 3 8 -0 -3 10 9 8 7 7 3 6 3 2 1 2 6 5 5 2 1 2 1 2 2 1 1 0 -1 -4 -3 -4 2 7 5 7 6 6 7 6 6 8 6 3 4 9 8 6 4 3 3 6 10 12 11 12 14 16 17 16 15 13 15 11 10 9 9 9 11 11 12 15 18 19 22 21 23 24 26 27 29 30 30 31 31 30 30
4 4 10 10 8 7 6 6 6 6 9 10 10 5 -1 -6 6 11 9 8 6 2 4 2 2 3 3 4 7 7 3 3 2 3 3 2 3 0 -2 -2 -4 -3 3 8 6 5 5 4 6 7 8 9 7 5 5 9 9 6 3 1 5 8 8 7 6 6 7 9 9 12 15 12 11 10 8 7 7 7 9 10 12 14 16 18 21 21 21 22 23 26 28 29 30 31 31 31 30
5 9 11 10 9 8 8 8 7 4 3 3 -1 6 -4 -4 4 10 10 5 2 3 3 4 5 4 6 7 6 9 3 5 3 4 4 3 2 -0 -1 -3 -4 -1 5 7 4 3 5 5 9 9 6 6 5 5 9 9 11 6 3 2 3 6 6 7 6 6 4 5 6 9 12 9 8 7 7 7 6 7 11 10 11 14 16 17 20 20 20 21 23 24 25 28 30 31 32 32 32
10 12 12 10 9 9 10 7 3 1 -4 -7 -3 0 -4 -3 10 10 11 5 3 4 3 3 5 5 6 9 5 7 6 5 6 5 4 2 1 -1 -2 -1 -0 0 5 10 10 5 4 5 8 12 6 5 5 6 7 7 5 5 1 1 2 4 6 3 2 1 2 6 10 12 11 6 6 4 4 5 5 6 7 9 12 13 16 17 19 16 17 19 22 25 26 27 29 30 32 32 32
16 12 9 7 5 2 6 5 0 1 -14 -3 -2 1 -1 -2 4 9 9 10 5 3 3 4 5 8 8 10 5 8 8 5 5 4 2 1 -0 -0 -0 -0 -1 0 4 6 6 4 3 6 7 7 5 5 5 6 7 5 3 1 1 2 3 4 3 2 1 1 5 8 13 14 8 7 6 6 7 7 6 6 7 11 12 15 15 16 15 11 11 14 18 23 26 29 30 30 31 31 31
12 9 7 5 1 0 1 1 0 -10 -4 -3 -2 -1 1 -1 -1 5 -1 2 4 2 3 3 3 6 6 7 7 6 6 5 4 3 1 -0 -1 -1 -0 -0 -0 0 3 4 4 5 7 7 8 6 5 5 5 8 6 4 2 2 2 3 4 3 2 2 2 3 5 8 12 13 12 10 8 8 5 5 5 5 7 9 16 13 12 11 10 10 11 12 14 23 28 30 29 31 31 31 30
9 8 6 3 1 -1 -2 -1 -4 -7 -4 -2 -1 2 0 0 -0 4 1 1 2 5 6 6 5 7 7 8 6 6 6 4 3 0 0 -0 -1 -1 -1 -1 -1 0 3 2 4 4 5 7 6 6 4 5 5 4 3 2 2 2 2 3 3 4 3 3 4 3 4 8 14 14 11 10 7 6 6 3 3 3 8 12 11 11 10 10 11 10 10 11 12 14 19 26 28 29 31 30 30
8 7 4 0 -8 -7 -4 -2 -5 -3 -2 0 0 2 1 2 3 -1 -0 1 5 6 10 7 8 9 7 6 5 4 4 2 1 1 0 -1 -1 -1 -1 -1 -1 0 1 3 4 11 7 7 6 5 5 5 4 3 2 2 2 2 2 3 3 3 3 2 -1 -2 -3 -2 2 6 7 5 4 3 2 2 3 4 8 12 12 10 9 9 10 9 9 10 13 16 20 24 26 28 30 30 30
7 9 4 -3 -3 -5 -2 -7 -4 -2 0 -0 3 -4 -10 -1 6 1 0 5 6 7 10 9 8 9 8 6 6 3 1 0 1 0 0 -0 -0 -1 -0 0 0 1 2 4 6 5 5 6 7 5 5 4 3 2 3 2 1 1 3 4 3 1 -0 -1 -1 1 -1 -2 -1 1 2 2 3 2 3 2 4 2 4 9 10 10 10 9 10 9 10 11 14 19 22 25 26 28 29 30 30
9 8 8 5 1 5 -1 -1 -4 -2 -1 -1 -5 -2 -0 2 6 7 4 4 8 11 11 12 7 5 2 2 1 0 0 -0 -0 -1 -0 -0 -1 0 1 1 1 2 4 7 5 5 6 6 7 6 4 3 3 4 2 2 1 3 4 2 -0 -0 1 -2 -0 -0 -0 -3 -6 -6 -6 -5 -2 -2 -2 -1 -0 5 9 8 7 7 7 7 7 10 10 13 18 22 24 26 27 29 29 29 30
1 1 -0 1 6 5 -2 1 -1 0 -0 -3 -4 2 0 6 1 3 2 5 6 9 7 5 3 5 1 1 0 -1 -1 -1 -1 0 -0 -0 -0 1 2 2 2 4 6 5 5 5 6 6 6 4 3 3 2 3 1 1 1 3 2 -1 -3 -4 -4 -4 -2 -4 -5 -5 -5 -6 -6 -5 -4 -3 -1 1 6 6 5 6 6 7 8 10 11 12 16 20 23 24 25 26 27 28 29 29 30
4 -2 3 6 8 5 2 -3 -2 -2 -3 -3 -1 -2 -1 -1 -2 -1 -2 4 6 6 4 2 2 2 -1 -1 -2 -2 -2 -1 -1 0 0 1 1 3 3 3 3 4 5 5 4 6 8 7 4 3 3 2 2 0 -0 -0 2 1 -1 -3 -4 -5 -3 -3 -5 -5 -5 -6 -6 -4 -3 -1 -0 1 1 4 4 4 6 8 9 11 12 13 15 17 18 19 22 23 25 26 26 27 28 29 29
5 5 9 3 -3 -2 -0 -4 -9 -9 -5 -5 -3 -2 -0 0 2 1 1 2 4 2 2 1 0 -0 -1 -2 -3 -2 -2 0 2 1 1 2 5 6 5 4 5 5 6 5 7 8 6 4 4 3 2 1 -0 -1 -2 1 2 -0 -3 -3 -5 -3 0 -1 -3 -5 -6 -7 -5 -2 -3 -4 -4 -3 -2 -2 -2 -1 0 2 3 4 7 7 9 11 17 22 23 24 25 25 26 28 28 28 29
12 10 3 6 2 -4 -7 -2 -1 -3 -5 -5 -4 -1 -4 1 2 3 6 6 2 1 1 1 -0 -1 -2 -3 -3 -2 1 3 1 -0 2 6 7 6 6 6 6 6 5 7 7 6 4 3 2 1 0 -2 -2 -3 -1 1 0 -2 -4 -4 -4 -3 -2 -3 -4 -6 -7 -8 -5 -4 -5 -6 -5 -5 -3 -1 -2 -1 -1 1 2 3 5 8 7 9 18 22 23 23 24 25 27 27 27 28 28
3 1 -1 1 -6 2 3 -6 -6 -6 -4 -3 -4 -6 -4 -0 1 3 7 2 0 1 1 0 -1 -2 -2 -2 -2 2 3 1 0 4 7 7 5 5 6 6 7 5 7 6 4 2 1 0 -2 -3 -4 -4 -5 -2 -1 -3 -4 -5 -4 -5 -5 -5 -4 -5 -6 -6 -7 -8 -7 -4 -7 -6 -4 -3 -3 -3 -2 -1 1 3 4 5 5 5 6 8 12 19 22 23 25 26 26 26 27 29 29
-0 3 2 4 -1 -0 -3 -4 -8 -12 -8 -4 -4 -6 -0 1 1 1 2 0 0 2 1 -1 -1 -2 -2 -2 1 2 -0 -1 5 7 5 4 4 6 6 6 6 5 3 0 0 -1 -2 -4 -6 -6 -6 -6 -3 -4 -6 -4 -4 -4 -6 -7 -7 -6 -6 -8 -8 -8 -8 -8 -7 -6 -6 -6 -6 -5 -4 -3 -2 -0 2 3 4 5 5 6 7 10 18 18 17 17 20 25 24 26 27 28 28